Вернуться в каталог

FLOCK 4H 4

АктивенНаукаSSO
NORAD 66707·PAYLOAD·🇺🇸 United States

Запущен Nov 28, 2025 с Vandenberg Space Force Base

Loading…

Ближайшие Пролёты (ближайшие 24 часа)

TLE

СвежийSource: CelesTrak SupGP

Эпоха: Sep 14, 2026, 14:44 UTC

1 66707C 25276AT  26257.61423611  .00008047  00000+0  36670-3 0  2574
2 66707  97.4154 329.7138 0005784  62.5615 280.3202 15.20716890    17

Отслеживайте FLOCK 4H 4 в реальном времени с AllMySat

Download on the App Store